Location: Jaite
(41.2884°N, 81.5737°W)
Time: 23:33:33
(UTC+00:00)

Cosmos 1850 Rocket - Pass Details

Date: 15 November 2025
Orbit: 751 x 780 km, 74.0° (Epoch: 11 December)

Event Time Altitude Azimuth Distance (km) Brightness Sun altitude
Rises 11:36:24 0° 336° (NNW) 3,208 6.8 -7.6°
Reaches altitude 10° 11:38:48 10° 333° (NNW) 2,280 6.0 -7.1°
Maximum altitude 11:43:51 58° 255° (WSW) 872 4.1 -6.2°
Drops below altitude 10° 11:48:54 10° 177° (S) 2,272 6.8 -5.3°
Sets 11:51:17 0° 173° (S) 3,196 7.6 -4.9°
